CST,Max TemperatureF,Mean TemperatureF,Min TemperatureF,Max Dew PointF,MeanDew PointF,Min DewpointF,Max Humidity, Mean Humidity, Min Humidity, Max Sea Level PressureIn, Mean Sea Level PressureIn, Min Sea Level PressureIn, Max VisibilityMiles, Mean VisibilityMiles, Min VisibilityMiles, Max Wind SpeedMPH, Mean Wind SpeedMPH, Max Gust SpeedMPH,PrecipitationIn, CloudCover, Events, WindDirDegrees
2012-12-1,68,52,37,54,46,35,93,77,61,30.11,30.02,29.93,10,8,2,16,8,,0.00,4,,129
2012-12-2,72,62,53,58,54,50,93,78,57,30.03,29.98,29.92,10,10,6,15,6,18,0.00,4,,205
2012-12-3,75,66,57,60,57,54,93,73,52,29.99,29.92,29.84,10,9,6,25,10,31,0.00,3,,175
2012-12-4,62,48,33,55,42,34,100,85,49,30.31,30.17,29.94,10,6,0,15,7,23,0.50,4,Fog-Rain,346
2012-12-5,52,42,33,41,35,31,100,83,54,30.39,30.29,30.16,10,7,0,10,2,,0.01,1,Fog,78
2012-12-6,52,42,33,42,38,30,92,82,61,30.12,30.01,29.93,10,9,6,10,7,,0.00,3,Rain,95
2012-12-7,51,48,44,48,46,41,100,94,86,29.93,29.86,29.82,10,4,1,7,4,,0.07,7,Rain,356
2012-12-8,46,44,42,46,42,37,100,91,81,30.01,29.94,29.86,10,5,2,12,5,,0.17,8,Rain,341
2012-12-9,48,42,35,46,41,29,100,89,75,29.95,29.86,29.78,10,5,0,20,7,24,0.66,7,Fog-Rain-Thunderstorm,18
2012-12-10,35,30,26,28,21,19,75,71,64,30.09,29.98,29.90,10,10,10,18,14,24,0.00,7,,290
2012-12-11,39,29,19,25,21,17,92,74,43,30.23,30.14,30.09,10,10,10,12,5,,0.00,0,,217
2012-12-12,50,36,23,31,24,20,96,73,32,30.35,30.28,30.23,10,9,2,12,2,,0.00,0,,144
2012-12-13,55,41,27,30,26,23,85,67,31,30.32,30.26,30.18,10,10,9,13,7,,0.00,0,,125
2012-12-14,54,41,28,39,32,25,89,73,52,30.23,30.13,29.96,10,10,10,12,6,,0.05,2,Rain,104
2012-12-15,62,52,42,50,44,39,93,84,62,29.94,29.73,29.58,10,8,2,23,11,30,0.50,6,Rain,176
2012-12-16,51,44,37,42,39,36,100,87,68,29.76,29.72,29.67,10,8,1,12,3,,0.00,3,,319
2012-12-17,39,38,37,37,36,32,93,88,79,29.81,29.72,29.69,9,5,2,14,6,,0.02,8,Rain,339
2012-12-18,59,44,30,39,33,30,96,73,42,29.93,29.78,29.65,10,8,4,20,6,25,0.00,0,,193
2012-12-19,46,38,30,44,35,28,92,85,76,30.02,29.86,29.52,8,5,2,15,7,,0.08,5,Rain,97
2012-12-20,55,41,26,52,35,18,96,84,66,29.97,29.49,29.22,10,5,0,34,17,54,0.59,7,Fog-Rain-Snow-Thunderstorm,256
2012-12-21,36,30,23,19,16,14,72,62,41,30.32,30.21,29.99,10,10,10,24,17,32,0.00,0,,288
2012-12-22,44,32,19,27,22,16,89,72,45,30.31,30.15,29.96,10,10,10,12,6,,0.00,0,,119
2012-12-23,45,36,28,32,28,24,92,78,53,29.98,29.93,29.88,10,10,7,9,5,,0.00,1,,44
2012-12-24,33,28,23,30,24,14,93,83,68,30.17,29.98,29.83,10,5,2,16,8,21,0.00,7,,321
2012-12-25,32,28,23,25,21,15,85,77,71,30.28,30.15,30.04,10,9,5,21,10,30,0.00,7,,13
2012-12-26,32,30,28,23,22,21,80,73,69,30.19,30.06,29.96,10,10,10,21,16,31,0.00,8,,337
2012-12-27,33,30,27,25,23,21,80,74,64,30.22,30.15,30.09,10,10,9,13,6,,0.00,6,,112
2012-12-28,35,32,30,30,27,24,92,82,76,30.07,29.99,29.91,10,7,4,8,5,,0.00,8,,130
2012-12-29,33,27,19,28,21,15,86,74,59,30.36,30.14,29.94,10,8,2,20,11,26,0.00,6,Snow,303
2012-12-30,42,30,17,26,21,14,88,74,49,30.44,30.35,30.21,10,8,4,10,3,,0.00,0,,172
2012-12-31,37,32,28,34,30,24,100,89,62,30.23,30.13,30.09,10,3,0,15,3,,0.18,7,Fog-Snow,238